Location: Drignac
(45.1667°N, 2.0333°E)
Time: 09:55:17
(UTC+00:00)

STARLINK-1244 - Pass Details

Date: 29 March 2020
Orbit: 549 x 550 km, 53.0° (Epoch: 07 June)

Event Time Altitude Azimuth Distance (km) Brightness Sun altitude
Rises 19:17:10 0° 235° (SW) 2,709 7.7 -11.3°
Reaches altitude 10° 19:19:24 10° 235° (SW) 1,818 6.8 -11.7°
Maximum altitude 19:23:32 87° 151° (SSE) 555 3.6 -12.4°
Drops below altitude 10° 19:27:42 10° 58° (ENE) 1,827 5.9 -13.1°
Enters shadow 19:27:59 - 58° (ENE) 1,945 6.0 -13.1°
